Regional Weather Roundup
Issued by NWS Newport/Morehead, NC

Current Version | Previous Version | Graphics & Text | Print | Product List | Glossary On
Versions: 1 2 3 4 5 6 7 8 9 10 11 12 13 14 15 16 17 18 19 20 21 22 23 24 25 26 27 28 29 30 31 32 33 34 35 36 37 38 39 40 41 42 43 44 45 46 47 48 49 50
931 ASUS42 KMHX 230625 RWRMHX WEATHER ROUNDUP FOR EASTERN NORTH CAROLINA NATIONAL WEATHER SERVICE NEWPORT/MOREHEAD CITY NC 100 AM EST MON JAN 23 2017 NOTE: "FAIR" INDICATES FEW OR NO CLOUDS BELOW 12,000 FEET WITH NO SIGNIFICANT WEATHER AND/OR OBSTRUCTIONS TO VISIBILITY NCZ015>017-031-032-045>047-102-103-230700- NORTH COAST CITY SKY/WX TMP DP RH WIND PRES REMARKS EDENTON CLOUDY 52 51 95 NE9 29.45F ELIZABETH CITY LGT RAIN 50 49 96 NE9 29.49F FOG KITTY HAWK NOT AVBL MANTEO CLOUDY 47 47 100 NE10 29.47F $$ NCZ045>047-081-094-103-104-230700- CENTRAL COAST CITY SKY/WX TMP DP RH WIND PRES REMARKS FRISCO CLOUDY 53 52 96 NE7 29.45F $$ NCZ095-097-098-100-101-230700- SOUTHERN COAST CITY SKY/WX TMP DP RH WIND PRES REMARKS BEAUFORT RAIN 55 54 96 NE10 29.40F FOG CEDAR ISLAND NOT AVBL JACKSONVILLE HVY RAIN 59 59 100 NE10 29.35S FOG PINEY ISLAND RAIN N/A N/A N/A NE17G26 29.42F WILMINGTON HVY RAIN 61 61 100 E5 29.30F FOG $$ NCZ011>013-027>030-043-044-078>080-089-090>093-098-230700- COASTAL PLAIN CITY SKY/WX TMP DP RH WIND PRES REMARKS AHOSKIE DRIZZLE 49 49 98 NE7 29.44F CLINTON RAIN 59 59 100 E7 29.33F ELIZABETHTOWN RAIN 60 60 100 E3 29.29F GOLDSBORO LGT RAIN 55 55 100 NE17 29.33F GREENVILLE CLOUDY 52 52 100 E8 29.45F HAVELOCK LGT RAIN 54 52 93 E15 29.41F KENANSVILLE LGT RAIN 59 57 94 E6 29.32F FOG KINSTON CLOUDY 55 55 100 NE14 29.37F NEW BERN RAIN 55 54 96 E12G21 29.39F FOG RICHLANDS RAIN 59 58 96 E12G22 29.34F ROCKY MOUNT RAIN 52 52 100 NE13 29.39F FOG WASHINGTON CLOUDY 51 51 99 E12G18 N/A WHITEVILLE LGT RAIN 61 60 96 E7 29.27F $$ AMZ130-135-150-152-154-156-158-170-250-252-270-ANZ085-086-088-633-658-670-230700- MARINE OBSERVATIONS STATION/POSITION TIME TEMP WIND PRES WAVE SWELL AIR SEA DIR/SP/G HT/PER HT/PER (UTC) (F) (DEG/KT/KT) (MB) (FT/S) (FT/S) CHESAPEAKE LIGHT NOT AVBL 64 E VA BEACH 0550 52 56 100/ 4/ 4 998.7 4/13 3/13 DUCK 0600 46 46 360/ 14/ 15 997.5 2 E DUCK 0600 47 N/A 3/13 2/13 OREGON INLET 0548 47 50 10/ 6/ 10 998.2 13E OREGON INLT NOT AVBL HATTERAS CG 0554 52 55 40/ 9/ 13 996.8 DIAMOND BUOY 0550 63 71 40/ 14/ 17 997.3 5/ 8 3/ 8 CAPE LOOKOUT 0600 61 50/ 16/ 19 995.4 BEAUFORT LAB 0600 40/ 10/ 13 994.2 30 SE NEW RVR IN 0608 66 70 160/ 21/ 29 993.4 30 SE NEW RVR IN 0543 70 N/A 6/ 8 2/13 27 SE WRIGHTSVLE 0608 69 67 160/ 21/ 29 991.5 5 SE WRIGHTSVLE 0608 64 160/ 17/ 31 992.5 225 S CAPE HAT 0550 74 71 190/ 27/ 33 998.6 10/ 8 7/12 41 SE CHARLESTON 0550 67 65 240/ 29/ 37 991.5 7/ 6 3/ 9 $$

USA.gov is the U.S. government's official web portal to all federal, state and local government web resources and services.